RYR2BN EBBR-EGPD

Flight info

Callsign RYR2BN
Flight time 1h 24m
Altitude 38000
Route NIK L191 VICOT N873 SPY L602 ERKIT DCT VP404 DCT EWOKE DCT ALASO DCT RITSI DCT MADAD DCT NEXUS DCT BALID DCT UPGET DCT OKPAL DCT EPCAN DCT ATF
Aircraft B738/M-SDE2E3FGHIRWXY/LB1

Departure

Time 2026-05-08 19:13
Airport Brussels Airport (EBBR)

Arrival

Time 2026-05-08 20:38
Airport Aberdeen International Airport (EGPD)
Time Latitude Longitude Altitude Speed Heading
2026-05-08 18:34 50.89726 4.48948 143 ft 0 kts 155°
2026-05-08 19:02 50.89747 4.48934 142 ft 4 kts 156°
2026-05-08 19:02 50.89771 4.48916 141 ft 4 kts 151°
2026-05-08 19:03 50.89792 4.48892 139 ft 4 kts 121°
2026-05-08 19:03 50.89796 4.48871 139 ft 0 kts 65°
2026-05-08 19:09 50.89821 4.48959 139 ft 14 kts 64°
2026-05-08 19:09 50.89864 4.49104 139 ft 15 kts 65°
2026-05-08 19:09 50.89907 4.49266 136 ft 15 kts 83°
2026-05-08 19:09 50.89834 4.49338 140 ft 13 kts 183°
2026-05-08 19:10 50.89745 4.49304 146 ft 14 kts 195°
2026-05-08 19:10 50.89642 4.49261 152 ft 15 kts 201°
2026-05-08 19:10 50.89554 4.49187 157 ft 14 kts 200°
2026-05-08 19:10 50.89452 4.49143 161 ft 17 kts 193°
2026-05-08 19:11 50.89336 4.49096 166 ft 12 kts 194°
2026-05-08 19:11 50.89317 4.49089 166 ft 0 kts 194°
2026-05-08 19:11 50.89295 4.49080 167 ft 8 kts 194°
2026-05-08 19:12 50.89237 4.49058 172 ft 9 kts 194°
2026-05-08 19:12 50.89171 4.49052 175 ft 11 kts 151°
2026-05-08 19:12 50.89168 4.49179 175 ft 10 kts 69°
2026-05-08 19:12 50.89192 4.49281 175 ft 44 kts 70°
2026-05-08 19:13 50.89413 4.50239 175 ft 138 kts 70°
2026-05-08 19:13 50.89805 4.51978 571 ft 186 kts 71°
2026-05-08 19:13 50.90252 4.54017 1562 ft 198 kts 69°
2026-05-08 19:13 50.90993 4.55857 2594 ft 207 kts 41°
2026-05-08 19:14 50.92396 4.56613 3395 ft 223 kts
2026-05-08 19:14 50.93906 4.55990 4290 ft 234 kts 332°
2026-05-08 19:14 50.95214 4.54370 5224 ft 244 kts 316°
2026-05-08 19:14 50.96473 4.52306 5786 ft 277 kts 313°
2026-05-08 19:15 50.97861 4.49909 6011 ft 320 kts 312°
2026-05-08 19:15 50.99463 4.47139 6269 ft 357 kts 312°
2026-05-08 19:15 51.01204 4.44156 6952 ft 376 kts 312°
2026-05-08 19:15 51.03026 4.41063 6967 ft 374 kts 313°
2026-05-08 19:16 51.04745 4.38168 6990 ft 352 kts 313°
2026-05-08 19:16 51.06388 4.35412 6984 ft 333 kts 313°
2026-05-08 19:16 51.07941 4.32808 6980 ft 315 kts 313°
2026-05-08 19:16 51.09410 4.30341 7021 ft 298 kts 313°
2026-05-08 19:17 51.10793 4.28019 7105 ft 280 kts 313°
2026-05-08 19:17 51.12090 4.25840 7197 ft 263 kts 313°
2026-05-08 19:17 51.13309 4.23787 7294 ft 255 kts 313°
2026-05-08 19:17 51.14522 4.21742 7604 ft 249 kts 313°
2026-05-08 19:18 51.15727 4.19710 8147 ft 255 kts 312°
2026-05-08 19:18 51.16984 4.17710 8662 ft 260 kts 319°
2026-05-08 19:18 51.18439 4.15959 9199 ft 261 kts 324°
2026-05-08 19:18 51.19933 4.14285 9741 ft 263 kts 324°
2026-05-08 19:19 51.21415 4.12606 10244 ft 265 kts 323°
2026-05-08 19:19 51.22919 4.10869 10731 ft 268 kts 323°
2026-05-08 19:19 51.24434 4.09101 11222 ft 269 kts 323°
2026-05-08 19:19 51.25955 4.07320 11725 ft 271 kts 323°
2026-05-08 19:20 51.27623 4.05958 12208 ft 276 kts 344°
2026-05-08 19:20 51.28903 4.05561 12582 ft 279 kts 353°
2026-05-08 19:20 51.31502 4.05334 13290 ft 284 kts 359°
2026-05-08 19:20 51.33465 4.05315 13823 ft 287 kts 360°
2026-05-08 19:21 51.35470 4.05305 14088 ft 287 kts 359°
2026-05-08 19:21 51.37478 4.05288 14105 ft 287 kts 359°
2026-05-08 19:21 51.39477 4.05262 14113 ft 288 kts 359°
2026-05-08 19:21 51.41529 4.05227 14142 ft 305 kts 359°
2026-05-08 19:22 51.43729 4.05186 14147 ft 336 kts 359°
2026-05-08 19:22 51.46184 4.05167 14130 ft 365 kts
2026-05-08 19:22 51.48770 4.05770 14428 ft 381 kts 14°
2026-05-08 19:22 51.51306 4.07182 14922 ft 390 kts 23°
2026-05-08 19:23 51.53470 4.08775 15489 ft 393 kts 25°
2026-05-08 19:23 51.55970 4.10709 15989 ft 402 kts 26°
2026-05-08 19:23 51.58478 4.12652 16502 ft 409 kts 25°
2026-05-08 19:23 51.61078 4.14639 17032 ft 415 kts 25°
2026-05-08 19:24 51.63713 4.16627 17565 ft 420 kts 25°
2026-05-08 19:24 51.66387 4.18629 18109 ft 425 kts 25°
2026-05-08 19:24 51.69056 4.20623 18619 ft 429 kts 25°
2026-05-08 19:24 51.71782 4.22661 19099 ft 433 kts 25°
2026-05-08 19:25 51.74525 4.24715 19598 ft 436 kts 24°
2026-05-08 19:25 51.77287 4.26782 20090 ft 439 kts 24°
2026-05-08 19:25 51.80072 4.28866 20594 ft 441 kts 24°
2026-05-08 19:25 51.82868 4.30960 21106 ft 443 kts 24°
2026-05-08 19:26 51.85636 4.33035 21622 ft 444 kts 24°
2026-05-08 19:26 51.88442 4.35144 22152 ft 445 kts 24°
2026-05-08 19:26 51.91258 4.37263 22689 ft 445 kts 24°
2026-05-08 19:26 51.94074 4.39386 23239 ft 446 kts 24°
2026-05-08 19:27 51.96534 4.41242 23714 ft 446 kts 24°
2026-05-08 19:27 51.99059 4.43150 24132 ft 446 kts 24°
2026-05-08 19:27 52.00941 4.44575 24449 ft 445 kts 24°
2026-05-08 19:27 52.03756 4.46706 24925 ft 445 kts 24°
2026-05-08 19:28 52.06573 4.48843 25405 ft 444 kts 24°
2026-05-08 19:28 52.09343 4.50947 25900 ft 443 kts 24°
2026-05-08 19:28 52.12133 4.53069 26397 ft 441 kts 24°
2026-05-08 19:28 52.14918 4.55190 26907 ft 440 kts 24°
2026-05-08 19:29 52.17691 4.57305 27428 ft 438 kts 23°
2026-05-08 19:29 52.20408 4.59380 27944 ft 436 kts 23°
2026-05-08 19:29 52.23151 4.61477 28484 ft 434 kts 23°
2026-05-08 19:29 52.25878 4.63570 29033 ft 431 kts 23°
2026-05-08 19:30 52.28591 4.65662 29602 ft 429 kts 23°
2026-05-08 19:30 52.31278 4.67738 30158 ft 426 kts 23°
2026-05-08 19:30 52.33961 4.69815 30647 ft 423 kts 23°
2026-05-08 19:30 52.36587 4.71850 31133 ft 420 kts 22°
2026-05-08 19:31 52.39237 4.73904 31636 ft 417 kts 22°
2026-05-08 19:31 52.41853 4.75935 32098 ft 415 kts 22°
2026-05-08 19:31 52.44470 4.77965 32117 ft 424 kts 22°
2026-05-08 19:32 52.50115 4.80788 32155 ft 431 kts 359°
2026-05-08 19:32 52.53112 4.80194 32139 ft 436 kts 343°
2026-05-08 19:32 52.55930 4.78253 32144 ft 441 kts 329°
2026-05-08 19:32 52.58349 4.75213 32129 ft 446 kts 314°
2026-05-08 19:33 52.60276 4.71166 32148 ft 448 kts 307°
2026-05-08 19:33 52.63737 4.62703 32130 ft 446 kts 306°
2026-05-08 19:34 52.67227 4.54249 32136 ft 445 kts 306°
2026-05-08 19:34 52.70749 4.45891 32141 ft 445 kts 306°
2026-05-08 19:35 52.74250 4.37484 32142 ft 445 kts 306°
2026-05-08 19:35 52.77458 4.28760 32150 ft 446 kts 301°
2026-05-08 19:36 52.80427 4.19769 32153 ft 446 kts 300°
2026-05-08 19:36 52.83398 4.10797 32158 ft 445 kts 301°
2026-05-08 19:37 52.86401 4.01824 32173 ft 444 kts 301°
2026-05-08 19:37 52.89392 3.92892 32160 ft 444 kts 301°
2026-05-08 19:38 52.92368 3.83971 32164 ft 443 kts 300°
2026-05-08 19:38 52.95351 3.74996 32166 ft 443 kts 300°
2026-05-08 19:39 52.98326 3.66012 32172 ft 443 kts 300°
2026-05-08 19:39 53.01273 3.57097 32188 ft 442 kts 300°
2026-05-08 19:40 53.04232 3.48163 32172 ft 442 kts 300°
2026-05-08 19:40 53.07206 3.39187 32163 ft 442 kts 300°
2026-05-08 19:41 53.09993 3.30086 32154 ft 443 kts 292°
2026-05-08 19:41 53.11556 3.20183 32172 ft 445 kts 284°
2026-05-08 19:42 53.12837 3.10079 32172 ft 445 kts 284°
2026-05-08 19:42 53.14133 3.00039 32174 ft 444 kts 284°
2026-05-08 19:43 53.15449 2.89970 32167 ft 444 kts 284°
2026-05-08 19:43 53.16760 2.79914 32168 ft 443 kts 284°
2026-05-08 19:44 53.18055 2.69906 32167 ft 443 kts 284°
2026-05-08 19:44 53.19343 2.59869 32169 ft 443 kts 283°
2026-05-08 19:45 53.20622 2.49839 32165 ft 443 kts 283°
2026-05-08 19:45 53.21890 2.39756 32171 ft 442 kts 283°
2026-05-08 19:46 53.23134 2.29763 32175 ft 441 kts 283°
2026-05-08 19:46 53.24993 2.14700 32172 ft 441 kts 282°
2026-05-08 19:47 53.26216 2.04711 32176 ft 441 kts 282°
2026-05-08 19:47 53.27439 1.94639 32178 ft 441 kts 282°
2026-05-08 19:48 53.28646 1.84634 32178 ft 441 kts 282°
2026-05-08 19:48 53.29849 1.74579 32176 ft 441 kts 282°
2026-05-08 19:49 53.31040 1.64551 32172 ft 441 kts 282°
2026-05-08 19:49 53.32228 1.54484 32167 ft 440 kts 281°
2026-05-08 19:50 53.33500 1.44487 32170 ft 440 kts 283°
2026-05-08 19:50 53.34979 1.34574 32170 ft 440 kts 284°
2026-05-08 19:51 53.36467 1.24593 32167 ft 440 kts 283°
2026-05-08 19:51 53.37904 1.14674 32174 ft 440 kts 283°
2026-05-08 19:52 53.39321 1.04743 32160 ft 439 kts 283°
2026-05-08 19:52 53.40499 0.96427 32165 ft 439 kts 283°
2026-05-08 19:53 53.41901 0.86470 32163 ft 439 kts 283°
2026-05-08 19:53 53.43527 0.74848 32158 ft 439 kts 282°
2026-05-08 19:54 53.44682 0.66536 32156 ft 439 kts 282°
2026-05-08 19:54 53.46064 0.56539 32162 ft 439 kts 282°
2026-05-08 19:55 53.47433 0.46587 32166 ft 439 kts 283°
2026-05-08 19:55 53.49673 0.37099 32155 ft 441 kts 297°
2026-05-08 19:56 53.53178 0.28559 32154 ft 443 kts 303°
2026-05-08 19:56 53.56806 0.20232 32155 ft 443 kts 303°
2026-05-08 19:57 53.60423 0.11795 32150 ft 443 kts 303°
2026-05-08 19:57 53.63991 0.03375 32147 ft 443 kts 303°
2026-05-08 19:58 53.67564 -0.05086 32146 ft 442 kts 302°
2026-05-08 19:58 53.71145 -0.13497 32145 ft 443 kts 304°
2026-05-08 19:59 53.74943 -0.21696 32143 ft 443 kts 305°
2026-05-08 19:59 53.78791 -0.29897 32146 ft 443 kts 305°
2026-05-08 20:00 53.82578 -0.38081 32152 ft 443 kts 304°
2026-05-08 20:00 53.86348 -0.46309 32161 ft 443 kts 304°
2026-05-08 20:01 53.90132 -0.54602 32165 ft 443 kts 304°
2026-05-08 20:01 53.93878 -0.62837 32161 ft 443 kts 304°
2026-05-08 20:02 53.97633 -0.71114 32164 ft 443 kts 304°
2026-05-08 20:02 54.01600 -0.79187 32157 ft 449 kts 314°
2026-05-08 20:03 54.06827 -0.85130 32163 ft 460 kts 330°
2026-05-08 20:03 54.12935 -0.88729 32155 ft 466 kts 337°
2026-05-08 20:04 54.19112 -0.91970 32156 ft 466 kts 337°
2026-05-08 20:04 54.25302 -0.95304 32150 ft 466 kts 336°
2026-05-08 20:05 54.31436 -0.98694 32155 ft 465 kts 336°
2026-05-08 20:05 54.37616 -1.02141 32158 ft 465 kts 336°
2026-05-08 20:06 54.43757 -1.05574 32160 ft 465 kts 336°
2026-05-08 20:06 54.49923 -1.09028 32165 ft 465 kts 336°
2026-05-08 20:07 54.56069 -1.12484 31838 ft 469 kts 336°
2026-05-08 20:07 54.59168 -1.14229 31553 ft 469 kts 336°
2026-05-08 20:07 54.62275 -1.15981 31168 ft 470 kts 336°
2026-05-08 20:08 54.65404 -1.17749 30803 ft 472 kts 336°
2026-05-08 20:08 54.68549 -1.19442 30438 ft 477 kts 340°
2026-05-08 20:08 54.71813 -1.20491 30046 ft 486 kts 349°
2026-05-08 20:08 54.75197 -1.20957 29643 ft 489 kts 351°
2026-05-08 20:09 54.78623 -1.21318 29221 ft 491 kts 351°
2026-05-08 20:09 54.82015 -1.21682 28811 ft 493 kts 351°
2026-05-08 20:09 54.85443 -1.22097 28404 ft 494 kts 351°
2026-05-08 20:09 54.88294 -1.22475 28078 ft 495 kts 351°
2026-05-08 20:10 54.91672 -1.22942 27714 ft 497 kts 351°
2026-05-08 20:10 54.95100 -1.23613 27671 ft 494 kts 345°
2026-05-08 20:10 54.98412 -1.25054 27657 ft 488 kts 336°
2026-05-08 20:10 55.01583 -1.27148 27669 ft 486 kts 333°
2026-05-08 20:11 55.04726 -1.29328 27659 ft 486 kts 333°
2026-05-08 20:11 55.07853 -1.31506 27658 ft 486 kts 333°
2026-05-08 20:11 55.11000 -1.33676 27662 ft 486 kts 333°
2026-05-08 20:11 55.14163 -1.35833 27418 ft 490 kts 334°
2026-05-08 20:12 55.17370 -1.38002 26933 ft 491 kts 334°
2026-05-08 20:12 55.20526 -1.40124 26489 ft 491 kts 334°
2026-05-08 20:12 55.23731 -1.42280 26043 ft 494 kts 334°
2026-05-08 20:12 55.26948 -1.44447 25597 ft 493 kts 334°
2026-05-08 20:13 55.30154 -1.46610 25159 ft 491 kts 334°
2026-05-08 20:13 55.33297 -1.48738 24735 ft 489 kts 334°
2026-05-08 20:13 55.36488 -1.50904 24267 ft 487 kts 334°
2026-05-08 20:13 55.39621 -1.53035 23813 ft 485 kts 334°
2026-05-08 20:14 55.42780 -1.55186 23282 ft 482 kts 335°
2026-05-08 20:14 55.45950 -1.57118 22761 ft 482 kts 341°
2026-05-08 20:14 55.49184 -1.58382 22311 ft 479 kts 345°
2026-05-08 20:14 55.52431 -1.59453 21851 ft 467 kts 346°
2026-05-08 20:15 55.55595 -1.60478 21396 ft 454 kts 345°
2026-05-08 20:15 55.58672 -1.61514 20949 ft 442 kts 345°
2026-05-08 20:15 55.61614 -1.62548 20524 ft 431 kts 345°
2026-05-08 20:15 55.64523 -1.63596 20094 ft 421 kts 344°
2026-05-08 20:16 55.67379 -1.64633 19726 ft 412 kts 344°
2026-05-08 20:16 55.70203 -1.65659 19685 ft 415 kts 344°
2026-05-08 20:16 55.72993 -1.66678 19345 ft 414 kts 344°
2026-05-08 20:16 55.75809 -1.67707 18901 ft 407 kts 344°
2026-05-08 20:17 55.78579 -1.68719 18480 ft 402 kts 344°
2026-05-08 20:17 55.81273 -1.69707 17999 ft 397 kts 344°
2026-05-08 20:17 55.83959 -1.70694 17503 ft 393 kts 344°
2026-05-08 20:17 55.86638 -1.71680 17026 ft 390 kts 344°
2026-05-08 20:18 55.89301 -1.72660 16550 ft 388 kts 345°
2026-05-08 20:18 55.91908 -1.73621 16093 ft 385 kts 345°
2026-05-08 20:18 55.94539 -1.74591 15629 ft 382 kts 345°
2026-05-08 20:18 55.97139 -1.75549 15237 ft 375 kts 345°
2026-05-08 20:19 55.99642 -1.76472 15177 ft 370 kts 345°
2026-05-08 20:19 56.02164 -1.77406 15162 ft 369 kts 345°
2026-05-08 20:19 56.04676 -1.78339 15162 ft 368 kts 344°
2026-05-08 20:19 56.07195 -1.79276 15127 ft 369 kts 344°
2026-05-08 20:20 56.09729 -1.80220 14706 ft 371 kts 345°
2026-05-08 20:20 56.12217 -1.81146 14326 ft 368 kts 345°
2026-05-08 20:20 56.14721 -1.82078 13933 ft 366 kts 345°
2026-05-08 20:20 56.17220 -1.83010 13500 ft 363 kts 345°
2026-05-08 20:21 56.19660 -1.83921 13070 ft 359 kts 345°
2026-05-08 20:21 56.22101 -1.84832 12645 ft 355 kts 345°
2026-05-08 20:21 56.24510 -1.85731 12221 ft 350 kts 345°
2026-05-08 20:21 56.26879 -1.86614 11806 ft 346 kts 345°
2026-05-08 20:22 56.29192 -1.87479 11405 ft 342 kts 345°
2026-05-08 20:22 56.31520 -1.88350 10996 ft 338 kts 345°
2026-05-08 20:22 56.33825 -1.89214 10603 ft 335 kts 345°
2026-05-08 20:22 56.35326 -1.89777 10518 ft 327 kts 345°
2026-05-08 20:23 56.38256 -1.90876 10494 ft 319 kts 344°
2026-05-08 20:23 56.40417 -1.91693 10249 ft 325 kts 344°
2026-05-08 20:23 56.42650 -1.92538 9842 ft 327 kts 345°
2026-05-08 20:23 56.44873 -1.93376 9393 ft 324 kts 345°
2026-05-08 20:24 56.47081 -1.94209 8976 ft 322 kts 345°
2026-05-08 20:24 56.49237 -1.95023 8558 ft 320 kts 345°
2026-05-08 20:24 56.51407 -1.95844 8313 ft 312 kts 346°
2026-05-08 20:24 56.53492 -1.96632 8284 ft 297 kts 345°
2026-05-08 20:25 56.55480 -1.97385 8252 ft 286 kts 345°
2026-05-08 20:25 56.57432 -1.98130 7839 ft 292 kts 346°
2026-05-08 20:25 56.59421 -1.98890 7461 ft 291 kts 346°
2026-05-08 20:25 56.61409 -1.99647 7097 ft 291 kts 346°
2026-05-08 20:26 56.63390 -2.00403 6729 ft 291 kts 346°
2026-05-08 20:26 56.65365 -2.01156 6335 ft 286 kts 346°
2026-05-08 20:26 56.67302 -2.01893 5882 ft 281 kts 347°
2026-05-08 20:26 56.69157 -2.02594 5706 ft 266 kts 347°
2026-05-08 20:27 56.70930 -2.03266 5574 ft 252 kts 347°
2026-05-08 20:27 56.72603 -2.03901 5417 ft 244 kts 346°
2026-05-08 20:27 56.74263 -2.04533 5271 ft 241 kts 347°
2026-05-08 20:27 56.75885 -2.05151 5140 ft 242 kts 347°
2026-05-08 20:28 56.77547 -2.05784 5031 ft 243 kts 347°
2026-05-08 20:28 56.79198 -2.06414 4774 ft 245 kts 347°
2026-05-08 20:28 56.80879 -2.07056 4491 ft 246 kts 347°
2026-05-08 20:28 56.82541 -2.07691 4412 ft 242 kts 347°
2026-05-08 20:29 56.84164 -2.08319 4282 ft 241 kts 347°
2026-05-08 20:29 56.85815 -2.08960 3888 ft 236 kts 347°
2026-05-08 20:29 56.87063 -2.09444 3599 ft 228 kts 347°
2026-05-08 20:29 56.88553 -2.10023 3247 ft 219 kts 347°
2026-05-08 20:30 56.90006 -2.10587 2898 ft 208 kts 347°
2026-05-08 20:30 56.91397 -2.11128 2566 ft 199 kts 347°
2026-05-08 20:30 56.92701 -2.11604 2503 ft 184 kts 353°
2026-05-08 20:30 56.93952 -2.11618 2511 ft 181 kts
2026-05-08 20:31 56.95232 -2.11508 2515 ft 184 kts
2026-05-08 20:31 56.96528 -2.11392 2520 ft 189 kts
2026-05-08 20:31 56.97820 -2.11284 2509 ft 187 kts
2026-05-08 20:31 56.99114 -2.11180 2516 ft 185 kts
2026-05-08 20:32 57.00357 -2.11086 2494 ft 170 kts
2026-05-08 20:32 57.01476 -2.11004 2499 ft 151 kts
2026-05-08 20:32 57.02509 -2.10932 2562 ft 149 kts
2026-05-08 20:32 57.03537 -2.10861 2519 ft 147 kts
2026-05-08 20:33 57.04556 -2.10790 2518 ft 145 kts
2026-05-08 20:33 57.05565 -2.10721 2521 ft 145 kts
2026-05-08 20:33 57.06561 -2.10653 2516 ft 144 kts
2026-05-08 20:33 57.07543 -2.10835 2515 ft 139 kts 342°
2026-05-08 20:34 57.08451 -2.11327 2523 ft 134 kts 345°
2026-05-08 20:34 57.09346 -2.11828 2454 ft 135 kts 341°
2026-05-08 20:34 57.11092 -2.13050 2083 ft 132 kts 340°
2026-05-08 20:35 57.11909 -2.13652 1897 ft 124 kts 340°
2026-05-08 20:35 57.12700 -2.14237 1749 ft 125 kts 340°
2026-05-08 20:35 57.13504 -2.14830 1575 ft 123 kts 339°
2026-05-08 20:35 57.14295 -2.15411 1394 ft 122 kts 340°
2026-05-08 20:36 57.15071 -2.15983 1236 ft 120 kts 339°
2026-05-08 20:36 57.15862 -2.16579 1055 ft 123 kts 338°
2026-05-08 20:36 57.16656 -2.17151 909 ft 122 kts 340°
2026-05-08 20:36 57.17443 -2.17727 746 ft 123 kts 337°
2026-05-08 20:37 57.18233 -2.18316 579 ft 125 kts 335°
2026-05-08 20:37 57.19037 -2.18912 411 ft 122 kts 337°
2026-05-08 20:37 57.19810 -2.19481 260 ft 119 kts 338°
2026-05-08 20:37 57.20436 -2.19955 249 ft 53 kts 338°
2026-05-08 20:38 57.20718 -2.20164 246 ft 38 kts 338°
2026-05-08 20:38 57.20904 -2.20303 245 ft 15 kts 336°
2026-05-08 20:38 57.20999 -2.20375 247 ft 13 kts 337°
2026-05-08 20:38 57.21032 -2.20492 247 ft 12 kts 245°
2026-05-08 20:39 57.21012 -2.20583 246 ft 11 kts 248°
2026-05-08 20:39 57.21008 -2.20599 246 ft 0 kts 248°
2026-05-08 20:40 57.21004 -2.20614 246 ft 4 kts 245°
2026-05-08 20:41 57.20967 -2.20663 246 ft 9 kts 189°
2026-05-08 20:41 57.20908 -2.20631 246 ft 9 kts 159°
2026-05-08 20:41 57.20846 -2.20587 246 ft 10 kts 158°
2026-05-08 20:41 57.20772 -2.20533 246 ft 12 kts 159°
2026-05-08 20:42 57.20693 -2.20474 246 ft 12 kts 158°
2026-05-08 20:42 57.20616 -2.20417 246 ft 12 kts 158°
2026-05-08 20:42 57.20540 -2.20361 246 ft 11 kts 158°
2026-05-08 20:42 57.20475 -2.20329 246 ft 9 kts 159°
2026-05-08 20:43 57.20423 -2.20259 246 ft 10 kts 137°
2026-05-08 20:43 57.20362 -2.20255 246 ft 10 kts 210°
2026-05-08 20:43 57.20301 -2.20294 246 ft 10 kts 174°
2026-05-08 20:43 57.20238 -2.20251 246 ft 10 kts 159°
2026-05-08 20:44 57.20181 -2.20209 246 ft 9 kts 158°
2026-05-08 20:44 57.20121 -2.20163 246 ft 9 kts 158°
2026-05-08 20:44 57.20062 -2.20120 246 ft 9 kts 160°
2026-05-08 20:44 57.20005 -2.20077 246 ft 9 kts 156°
2026-05-08 20:45 57.19980 -2.20078 246 ft 3 kts 211°
2026-05-08 20:45 57.19968 -2.20114 246 ft 4 kts 243°
2026-05-08 20:45 57.19961 -2.20144 246 ft 1 kts 247°
2026-05-08 20:45 57.19958 -2.20157 246 ft 1 kts 248°
2026-05-08 20:46 57.19956 -2.20164 246 ft 0 kts 248°
2026-05-08 20:46 57.19956 -2.20165 246 ft 0 kts 248°